Grand Junction, CO

4:48 PM MST on November 18, 2019 (GMT -0700)
Walker

Weather History for KGJT - April, 2019

Change the Weather History Date:

Monday, April 1, 2019

  Actual Average Record
Temperature  
Mean Temperature 46 °F 48 °F  
Max Temperature 59 °F 61 °F 78 °F (1966)
Min Temperature 33 °F 34 °F 14 °F (1920)
Degree Days  
Heating Degree Days 19 17  
Month to date heating degree days 19 17  
Since 1 July heating degree days 5127 5049  
Cooling Degree Days 0 0  
Month to date cooling degree days 0 0  
Year to date cooling degree days 0 0  
Moisture  
Dew Point 24 °F    
Average Humidity 43    
Maximum Humidity 64    
Minimum Humidity 21    
Precipitation  
Precipitation 0.00 in 0.03 in 0.36 in (2010)
Month to date precipitation 0.00 0.03  
Year to date precipitation 3.73 2.07  
Snow  
Snow 0.00 in 0.10 in 3.30 in (1975)
Month to date snowfall 0.0 0.1  
Since 1 July snowfall 17.4 18.2  
Snow Depth 0.00 in    
Sea Level Pressure  
Sea Level Pressure 30.05 in    
Wind  
Wind Speed 9 mph (NE)    
Max Wind Speed 20 mph    
Max Gust Speed 29 mph    
Visibility 10 miles    
Events      
T = Trace of Precipitation, MM = Missing Value Source: NWS Daily Summary

Daily Weather History Graph

Daily Weather History Graph

Search for Another Location

Airport or City:

Astronomy

Apr. 01, 2019 Rise Set
Actual Time 6:58 AM MDT 7:37 PM MDT
Civil Twilight 6:31 AM MDT 8:04 PM MDT
Nautical Twilight 6:00 AM MDT 8:36 PM MDT
Astronomical Twilight 5:27 AM MDT 9:09 PM MDT
Moon 5:31 AM MDT (4/1) 4:17 PM MDT (4/1)
Length of Visible Light 13h 32m
Length of Day
12h 38m
Waning Crescent, 12% of the Moon is Illuminated
Apr 1
Waning Crescent
Apr 5
New
Apr 12
First Quarter
Apr 19
Full
Apr 26
Last Quarter

Hourly Weather History & Observations

Time (MDT) Temp. Windchill Dew Point Humidity Pressure Visibility Wind Dir Wind Speed Gust Speed Precip Events Conditions
12:53 AM 35.1 °F 32.2 °F 24.1 °F 64% 30.14 in 10.0 mi ENE 3.5 mph - N/A   Clear
1:53 AM 36.0 °F 32.1 °F 23.0 °F 59% 30.13 in 10.0 mi East 4.6 mph - N/A   Clear
2:53 AM 36.0 °F 28.0 °F 24.1 °F 62% 30.11 in 10.0 mi ESE 11.5 mph - N/A   Clear
3:53 AM 37.9 °F 30.0 °F 25.0 °F 60% 30.09 in 10.0 mi East 12.7 mph - N/A   Clear
4:53 AM 35.1 °F 26.9 °F 25.0 °F 67% 30.10 in 10.0 mi ESE 11.5 mph - N/A   Clear
5:53 AM 35.1 °F 26.4 °F 24.1 °F 64% 30.12 in 10.0 mi ESE 12.7 mph - N/A   Clear
6:53 AM 33.1 °F 23.9 °F 21.9 °F 64% 30.12 in 10.0 mi East 12.7 mph - N/A   Clear
7:53 AM 35.1 °F 27.4 °F 23.0 °F 61% 30.15 in 10.0 mi East 10.4 mph - N/A   Clear
8:53 AM 39.9 °F 32.9 °F 24.1 °F 53% 30.13 in 10.0 mi ESE 11.5 mph - N/A   Clear
9:53 AM 45.0 °F 41.2 °F 25.0 °F 46% 30.12 in 10.0 mi SE 6.9 mph - N/A   Clear
10:53 AM 48.9 °F - 26.1 °F 41% 30.11 in 10.0 mi North - - N/A   Clear
10:59 AM 48.0 °F - 25.0 °F 41% 30.16 in 10.0 mi South 3.5 mph - N/A   Clear
11:53 AM 51.1 °F - 25.0 °F 36% 30.11 in 10.0 mi NNW 6.9 mph - N/A   Clear
12:53 PM 54.0 °F - 24.1 °F 31% 30.07 in 10.0 mi NNW 9.2 mph 17.3 mph N/A   Clear
1:53 PM 55.9 °F - 24.1 °F 29% 30.04 in 10.0 mi NW 15.0 mph 21.9 mph N/A   Clear
2:53 PM 57.9 °F - 21.9 °F 25% 30.01 in 10.0 mi NW 10.4 mph 26.5 mph N/A   Clear
3:53 PM 59.0 °F - 21.9 °F 24% 29.97 in 10.0 mi NW 15.0 mph 21.9 mph N/A   Clear
4:53 PM 59.0 °F - 19.9 °F 22% 29.96 in 10.0 mi NW 12.7 mph 23.0 mph N/A   Clear
5:53 PM 57.0 °F - 21.9 °F 26% 29.96 in 10.0 mi NW 8.1 mph - N/A   Clear
6:53 PM 55.9 °F - 23.0 °F 28% 29.96 in 10.0 mi NNW 9.2 mph - N/A   Clear
7:53 PM 53.1 °F - 23.0 °F 31% 29.97 in 10.0 mi North 5.8 mph - N/A   Clear
8:53 PM 51.1 °F - 27.0 °F 39% 29.97 in 10.0 mi NNE 6.9 mph - N/A   Mostly Cloudy
9:53 PM 51.1 °F - 27.0 °F 39% 29.96 in 10.0 mi NE 6.9 mph - N/A   Overcast
10:53 PM 51.1 °F - 25.0 °F 36% 29.94 in 10.0 mi ENE 6.9 mph - N/A   Overcast
11:53 PM 51.1 °F - 27.0 °F 39% 29.93 in 10.0 mi Calm Calm - N/A   Overcast